sat.trackr.live / text

‹ back to catalog

STARLINK-30343

NORAD 57753 · 2023-131X

PAYLOAD ACTIVE UNKNOWN

§ Identity

Operator
Country
US
Launch date
2023-09-01
Launch site
AFETR
Launch vehicle
Mass (kg)
RCS (m²)

Purposes: comms

External: N2YO · Heavens-Above · Gunter

§ Orbital elements

Epoch: 2026-05-24T22:54:45.794016Z

Period
94.27 min
Inclination
43.0043°
Eccentricity
0.0001262
Mean motion
15.27576083 rev/d
Perigee alt
482.2 km
Apogee alt
483.9 km
Semi-major
6,861.2 km
B*
5.7546e-5
RAAN
109.1124°
Arg perigee
271.0970°
Mean anomaly
88.9737°
Rev number
15,149

§ Raw data

STARLINK-303431 57753U 23131X   26144.95469669  .00001322  00000+0  57546-4 0  99962 57753  43.0043 109.1124 0001262 271.0970  88.9737 15.27576083151494

JSON: /api/v1/satellites/57753 · /tle

For live sub-satellite position, see the globe view (requires WebGL).

§ Visibility from observer

Set your observer location to see the next 7 days of passes ≥ 10°. The values pass through the URL so the page stays shareable.

No JS? Fill the form by hand. The geolocation button needs JavaScript.